When you browse on this site, cookies collect data to enhance your experience and personalize the content and advertising you see.
Visit our Privacy Policy to learn more. By continuing to use the site, you agree to this use of cookies and data.
  • In United Kingdom
  • List of Countries
  • For 7 days
  • Water Temperature
  • Satellite Maps
  • Weather Map
  • Weather Widgets
  • user-avatar
    Login

    Hourly Weather Chachapoyas

    Today, 23 February, Saturday

    Time Temperature Precipitation Wind Pressure Humidity
    00:00 +12°C° 0.2 mm 0 mps 574 mmHg 95%
    01:00 +12°C° 0 mm 0 mps 575 mmHg 94%
    02:00 +12°C° 0.3 mm 0 mps 574 mmHg 93%
    03:00 +11°C° 0.3 mm 0 mps 574 mmHg 93%
    04:00 +11°C° 0.3 mm 0 mps 574 mmHg 92%
    05:00 +11°C° 0.2 mm 0 mps 574 mmHg 91%
    06:00 +12°C° 0.2 mm 0 mps 574 mmHg 90%
    07:00 +12°C° 0.2 mm 0 mps 574 mmHg 89%
    08:00 +15°C° 0.2 mm 1 mps 576 mmHg 80%
    09:00 +18°C° 0.2 mm 1 mps 577 mmHg 71%
    10:00 +21°C° 0.2 mm 1 mps 578 mmHg 61%
    11:00 +20°C° 0.7 mm 1 mps 577 mmHg 65%
    12:00 +20°C° 0.7 mm 1 mps 576 mmHg 69%
    13:00 +19°C° 0.7 mm 1 mps 576 mmHg 73%
    14:00 +20°C° 0.5 mm 1 mps 575 mmHg 71%
    15:00 +20°C° 0.5 mm 1 mps 575 mmHg 69%
    16:00 +21°C° 0.5 mm 1 mps 574 mmHg 67%
    17:00 +19°C° 0.3 mm 1 mps 574 mmHg 74%
    18:00 +16°C° 0.3 mm 1 mps 573 mmHg 82%
    19:00 +13°C° 0.3 mm 0 mps 572 mmHg 89%
    20:00 +13°C° 0.2 mm 0 mps 573 mmHg 90%
    21:00 +12°C° 0.2 mm 0 mps 573 mmHg 91%
    22:00 +12°C° 0.2 mm 0 mps 574 mmHg 93%
    23:00 +12°C° 0.2 mm 0 mps 573 mmHg 93%

    Tomorrow, 24 February, Sunday

    Time Temperature Precipitation Wind Pressure Humidity
    00:00 +12°C° 0.2 mm 1 mps 573 mmHg 93%
    01:00 +12°C° 0.2 mm 1 mps 573 mmHg 93%
    02:00 +12°C° 0.1 mm 1 mps 573 mmHg 93%
    03:00 +12°C° 0.1 mm 1 mps 572 mmHg 94%
    04:00 +12°C° 0.1 mm 1 mps 572 mmHg 94%
    05:00 +12°C° 0.1 mm 1 mps 572 mmHg 92%
    06:00 +12°C° 0.1 mm 1 mps 573 mmHg 91%
    07:00 +13°C° 0.1 mm 1 mps 573 mmHg 89%
    08:00 +15°C° 0.1 mm 1 mps 575 mmHg 78%
    09:00 +19°C° 0.1 mm 1 mps 576 mmHg 67%
    10:00 +21°C° 0.1 mm 1 mps 578 mmHg 56%
    11:00 +20°C° 0.4 mm 2 mps 577 mmHg 59%
    12:00 +20°C° 0.4 mm 2 mps 576 mmHg 62%
    13:00 +20°C° 0.4 mm 2 mps 575 mmHg 66%
    14:00 +20°C° 0.6 mm 2 mps 575 mmHg 67%
    15:00 +20°C° 0.6 mm 2 mps 574 mmHg 67%
    16:00 +20°C° 0.6 mm 2 mps 574 mmHg 68%
    17:00 +18°C° 0.6 mm 2 mps 573 mmHg 76%
    18:00 +16°C° 0.6 mm 2 mps 573 mmHg 84%
    19:00 +14°C° 0.6 mm 1 mps 572 mmHg 92%
    20:00 +14°C° 0.4 mm 1 mps 573 mmHg 93%
    21:00 +14°C° 0.4 mm 1 mps 573 mmHg 95%
    22:00 +13°C° 0.4 mm 1 mps 574 mmHg 96%
    23:00 +13°C° 0.2 mm 1 mps 574 mmHg 96%

    Day after tomorrow, 25 February, Monday

    Time Temperature Precipitation Wind Pressure Humidity
    00:00 +13°C° 0.2 mm 1 mps 573 mmHg 96%
    01:00 +13°C° 0.2 mm 1 mps 573 mmHg 96%
    02:00 +12°C° 0.3 mm 1 mps 573 mmHg 96%
    03:00 +12°C° 0.3 mm 1 mps 572 mmHg 96%
    04:00 +12°C° 0.3 mm 1 mps 572 mmHg 96%
    05:00 +12°C° 0.5 mm 1 mps 572 mmHg 95%
    06:00 +12°C° 0.5 mm 1 mps 573 mmHg 95%
    07:00 +12°C° 0.5 mm 1 mps 573 mmHg 95%
    08:00 +13°C° 1.2 mm 1 mps 574 mmHg 93%
    09:00 +13°C° 1.2 mm 1 mps 575 mmHg 91%
    10:00 +14°C° 1.2 mm 1 mps 575 mmHg 90%
    11:00 +14°C° 1.1 mm 1 mps 575 mmHg 87%
    12:00 +15°C° 1.1 mm 1 mps 575 mmHg 85%
    13:00 +15°C° 1.1 mm 1 mps 574 mmHg 83%
    14:00 +16°C° 0.2 mm 1 mps 574 mmHg 76%
    15:00 +18°C° 0.2 mm 1 mps 574 mmHg 69%
    16:00 +20°C° 0.2 mm 1 mps 574 mmHg 62%
    17:00 +18°C° 0.4 mm 1 mps 574 mmHg 69%
    18:00 +16°C° 0.4 mm 1 mps 573 mmHg 76%
    19:00 +14°C° 0.4 mm 1 mps 573 mmHg 83%
    20:00 +13°C° 0.1 mm 1 mps 573 mmHg 85%
    21:00 +13°C° 0.1 mm 1 mps 573 mmHg 87%
    22:00 +12°C° 0.1 mm 0 mps 574 mmHg 89%
    23:00 +12°C° 0 mm 1 mps 573 mmHg 90%

    26 February, Tuesday

    Time Temperature Precipitation Wind Pressure Humidity
    00:00 +12°C° 0 mm 1 mps 573 mmHg 90%
    01:00 +12°C° 0 mm 1 mps 573 mmHg 91%
    02:00 +12°C° 0 mm 1 mps 573 mmHg 91%
    03:00 +12°C° 0 mm 1 mps 572 mmHg 92%
    04:00 +11°C° 0 mm 1 mps 572 mmHg 92%
    05:00 +12°C° 0 mm 1 mps 572 mmHg 91%
    06:00 +12°C° 0 mm 1 mps 573 mmHg 89%
    07:00 +12°C° 0 mm 1 mps 573 mmHg 88%
    08:00 +14°C° 0 mm 1 mps 575 mmHg 78%
    09:00 +18°C° 0 mm 1 mps 576 mmHg 67%
    10:00 +20°C° 0 mm 2 mps 578 mmHg 57%
    11:00 +20°C° 0.2 mm 2 mps 577 mmHg 58%
    12:00 +20°C° 0.2 mm 2 mps 577 mmHg 60%
    13:00 +20°C° 0.2 mm 3 mps 576 mmHg 61%
    14:00 +19°C° 0.6 mm 2 mps 575 mmHg 65%
    15:00 +18°C° 0.6 mm 2 mps 574 mmHg 68%
    16:00 +18°C° 0.6 mm 2 mps 574 mmHg 72%
    17:00 +16°C° 0.2 mm 2 mps 573 mmHg 78%
    18:00 +15°C° 0.2 mm 1 mps 573 mmHg 84%
    19:00 +13°C° 0.2 mm 1 mps 573 mmHg 90%
    20:00 +13°C° 0 mm 1 mps 573 mmHg 92%
    21:00 +12°C° 0 mm 1 mps 573 mmHg 93%
    22:00 +12°C° 0 mm 1 mps 574 mmHg 95%
    23:00 +11°C° 0 mm 0 mps 574 mmHg 95%

    27 February, Wednesday

    Time Temperature Precipitation Wind Pressure Humidity
    00:00 +11°C° 0 mm 0 mps 573 mmHg 94%
    01:00 +11°C° 0 mm 0 mps 573 mmHg 94%
    02:00 +11°C° 0 mm 0 mps 573 mmHg 94%
    03:00 +11°C° 0 mm 0 mps 573 mmHg 95%
    04:00 +10°C° 0 mm 0 mps 572 mmHg 95%
    05:00 +11°C° 0.1 mm 0 mps 573 mmHg 94%
    06:00 +12°C° 0.1 mm 1 mps 573 mmHg 93%
    07:00 +12°C° 0.1 mm 1 mps 574 mmHg 92%
    08:00 +13°C° 0.1 mm 1 mps 575 mmHg 84%
    09:00 +15°C° 0.1 mm 2 mps 576 mmHg 75%
    10:00 +16°C° 0.1 mm 3 mps 577 mmHg 66%
    11:00 +18°C° 0 mm 3 mps 577 mmHg 60%
    12:00 +19°C° 0 mm 3 mps 577 mmHg 55%
    13:00 +20°C° 0 mm 3 mps 577 mmHg 49%
    14:00 +20°C° 0 mm 3 mps 576 mmHg 49%
    15:00 +21°C° 0 mm 3 mps 575 mmHg 48%
    16:00 +21°C° 0 mm 3 mps 575 mmHg 47%
    17:00 +18°C° 0 mm 2 mps 574 mmHg 57%
    18:00 +16°C° 0 mm 2 mps 573 mmHg 66%
    19:00 +14°C° 0 mm 1 mps 572 mmHg 76%
    20:00 +13°C° 0 mm 1 mps 573 mmHg 79%
    21:00 +12°C° 0 mm 1 mps 573 mmHg 83%
    22:00 +10°C° 0 mm 0 mps 573 mmHg 86%
    23:00 +11°C° 0 mm 1 mps 573 mmHg 86%

    28 February, Thursday

    Time Temperature Precipitation Wind Pressure Humidity
    00:00 +11°C° 0 mm 1 mps 573 mmHg 87%
    01:00 +11°C° 0 mm 1 mps 573 mmHg 87%
    02:00 +11°C° 0 mm 1 mps 572 mmHg 86%
    03:00 +11°C° 0 mm 1 mps 572 mmHg 86%
    04:00 +11°C° 0 mm 1 mps 572 mmHg 86%
    05:00 +10°C° 0.1 mm 0 mps 573 mmHg 85%
    06:00 +11°C° 0.1 mm 0 mps 574 mmHg 83%
    07:00 +11°C° 0.1 mm 0 mps 574 mmHg 82%
    08:00 +13°C° 0.1 mm 1 mps 575 mmHg 79%
    09:00 +14°C° 0.1 mm 1 mps 576 mmHg 76%
    10:00 +15°C° 0.1 mm 1 mps 576 mmHg 73%
    11:00 +18°C° 0.1 mm 1 mps 576 mmHg 68%
    12:00 +18°C° 0.1 mm 2 mps 576 mmHg 64%
    13:00 +19°C° 0.1 mm 2 mps 576 mmHg 60%
    14:00 +19°C° 0.2 mm 2 mps 576 mmHg 60%
    15:00 +19°C° 0.2 mm 2 mps 575 mmHg 60%
    16:00 +19°C° 0.2 mm 2 mps 574 mmHg 61%
    17:00 +18°C° 0.1 mm 1 mps 574 mmHg 69%
    18:00 +15°C° 0.1 mm 1 mps 573 mmHg 77%
    19:00 +14°C° 0.1 mm 1 mps 573 mmHg 85%
    20:00 +12°C° 0 mm 0 mps 573 mmHg 87%
    21:00 +12°C° 0 mm 0 mps 574 mmHg 88%
    22:00 +11°C° 0 mm 0 mps 574 mmHg 90%
    23:00 +11°C° 0 mm 0 mps 574 mmHg 91%
    Show more